| time (UTC) | temp F | wind direction | speed MPH | gust MPH | rain 1hr in | rain 24hr in | rain mn in | humidity % | barometer mb |
| 20260504225706 | 67 | 256 | 2.0 | 10.0 | 0.00 | 0.00 | 0.00 | 40 | 1004.2 |
| 20260504225202 | 67 | 183 | 5.0 | 6.0 | 0.00 | 0.00 | 0.00 | 40 | 1004.1 |
| 20260504224700 | 68 | 221 | 4.0 | 7.0 | 0.00 | 0.00 | 0.00 | 39 | 1004.2 |
| 20260504224156 | 68 | 242 | 2.0 | 8.0 | 0.00 | 0.00 | 0.00 | 38 | 1004.2 |
| 20260504223653 | 68 | 245 | 3.0 | 3.0 | 0.00 | 0.00 | 0.00 | 38 | 1004.0 |
| 20260504223148 | 68 | 257 | 5.0 | 7.0 | 0.00 | 0.00 | 0.00 | 39 | 1003.9 |
| 20260504222646 | 68 | 247 | 2.0 | 3.0 | 0.00 | 0.00 | 0.00 | 39 | 1004.2 |
| 20260504222142 | 69 | 251 | 0.0 | 6.0 | 0.00 | 0.00 | 0.00 | 39 | 1004.0 |
| 20260504221640 | 69 | 259 | 2.0 | 5.0 | 0.00 | 0.00 | 0.00 | 38 | 1004.2 |
| 20260504221137 | 69 | 227 | 1.0 | 6.0 | 0.00 | 0.00 | 0.00 | 38 | 1004.1 |
| 20260504220633 | 70 | 261 | 3.0 | 3.0 | 0.00 | 0.00 | 0.00 | 38 | 1004.1 |
| 20260504220131 | 70 | 257 | 6.0 | 10.0 | 0.00 | 0.00 | 0.00 | 37 | 1004.2 |
| 20260504215627 | 69 | 248 | 2.0 | 8.0 | 0.00 | 0.00 | 0.00 | 37 | 1004.0 |
| 20260504215125 | 69 | 163 | 3.0 | 10.0 | 0.00 | 0.00 | 0.00 | 37 | 1004.2 |
| 20260504214620 | 69 | 239 | 2.0 | 14.0 | 0.00 | 0.00 | 0.00 | 38 | 1004.2 |
| 20260504214117 | 69 | 267 | 6.0 | 10.0 | 0.00 | 0.00 | 0.00 | 37 | 1004.3 |
| 20260504213613 | 69 | 233 | 3.0 | 7.0 | 0.00 | 0.00 | 0.00 | 38 | 1004.1 |
| 20260504213110 | 69 | 216 | 6.0 | 8.0 | 0.00 | 0.00 | 0.00 | 38 | 1004.1 |
| 20260504212606 | 69 | 251 | 2.0 | 6.0 | 0.00 | 0.00 | 0.00 | 39 | 1004.0 |
| 20260504212104 | 69 | 267 | 4.0 | 6.0 | 0.00 | 0.00 | 0.00 | 39 | 1004.0 |
| 20260504211601 | 68 | 125 | 3.0 | 10.0 | 0.00 | 0.00 | 0.00 | 39 | 1004.2 |
| 20260504211057 | 68 | 285 | 6.0 | 7.0 | 0.00 | 0.00 | 0.00 | 39 | 1004.0 |
| 20260504210555 | 68 | 228 | 2.0 | 8.0 | 0.00 | 0.00 | 0.00 | 41 | 1003.9 |
| 20260504210051 | 70 | 253 | 2.0 | 8.0 | 0.00 | 0.00 | 0.00 | 38 | 1004.0 |
| 20260504205549 | 70 | 239 | 4.0 | 8.0 | 0.00 | 0.00 | 0.00 | 37 | 1004.1 |
| 20260504205047 | 69 | 272 | 6.0 | 10.0 | 0.00 | 0.00 | 0.00 | 39 | 1004.0 |
| 20260504204544 | 69 | 232 | 3.0 | 8.0 | 0.00 | 0.00 | 0.00 | 37 | 1004.1 |
| 20260504204043 | 69 | 238 | 5.0 | 7.0 | 0.00 | 0.00 | 0.00 | 38 | 1003.8 |
| 20260504203541 | 69 | 246 | 5.0 | 9.0 | 0.00 | 0.00 | 0.00 | 38 | 1003.9 |
| 20260504203038 | 70 | 257 | 5.0 | 7.0 | 0.00 | 0.00 | 0.00 | 37 | 1003.6 |
| 20260504202534 | 70 | 178 | 8.0 | 14.0 | 0.00 | 0.00 | 0.00 | 36 | 1003.9 |
| 20260504202031 | 69 | 268 | 5.0 | 10.0 | 0.00 | 0.00 | 0.00 | 38 | 1003.7 |
| 20260504201528 | 67 | 225 | 4.0 | 7.0 | 0.00 | 0.00 | 0.00 | 40 | 1003.8 |
| 20260504201026 | 69 | 245 | 7.0 | 10.0 | 0.00 | 0.00 | 0.00 | 39 | 1003.9 |
| 20260504200521 | 69 | 206 | 4.0 | 7.0 | 0.00 | 0.00 | 0.00 | 39 | 1004.0 |
| 20260504200019 | 69 | 273 | 9.0 | 13.0 | 0.00 | 0.00 | 0.00 | 38 | 1004.1 |
| 20260504195515 | 70 | 326 | 11.0 | 16.0 | 0.00 | 0.00 | 0.00 | 39 | 1003.9 |
| 20260504195011 | 70 | 266 | 5.0 | 8.0 | 0.00 | 0.00 | 0.00 | 37 | 1004.1 |
| 20260504194508 | 69 | 247 | 2.0 | 13.0 | 0.00 | 0.00 | 0.00 | 38 | 1004.0 |
| 20260504194003 | 68 | 203 | 9.0 | 14.0 | 0.00 | 0.00 | 0.00 | 40 | 1004.2 |
| 20260504193501 | 68 | 287 | 5.0 | 14.0 | 0.00 | 0.00 | 0.00 | 40 | 1003.9 |
| 20260504192959 | 69 | 262 | 2.0 | 11.0 | 0.00 | 0.00 | 0.00 | 40 | 1004.1 |
| 20260504192456 | 70 | 275 | 7.0 | 10.0 | 0.00 | 0.00 | 0.00 | 39 | 1004.3 |
| 20260504191955 | 69 | 267 | 4.0 | 6.0 | 0.00 | 0.00 | 0.00 | 38 | 1004.4 |
| 20260504191453 | 69 | 227 | 8.0 | 11.0 | 0.00 | 0.00 | 0.00 | 39 | 1004.2 |
| 20260504190947 | 68 | 289 | 5.0 | 15.0 | 0.00 | 0.00 | 0.00 | 40 | 1004.3 |
| 20260504190444 | 69 | 220 | 5.0 | 7.0 | 0.00 | 0.00 | 0.00 | 38 | 1004.2 |
| 20260504185941 | 69 | 281 | 6.0 | 7.0 | 0.00 | 0.00 | 0.00 | 37 | 1004.4 |
| 20260504185438 | 68 | 273 | 4.0 | 10.0 | 0.00 | 0.00 | 0.00 | 41 | 1004.4 |
| 20260504184934 | 66 | 244 | 3.0 | 8.0 | 0.00 | 0.00 | 0.00 | 41 | 1004.6 |
| 20260504184429 | 65 | 245 | 8.0 | 13.0 | 0.00 | 0.00 | 0.00 | 41 | 1004.6 |
| 20260504183926 | 65 | 198 | 6.0 | 8.0 | 0.00 | 0.00 | 0.00 | 41 | 1004.4 |
| 20260504183423 | 65 | 264 | 5.0 | 8.0 | 0.00 | 0.00 | 0.00 | 41 | 1004.5 |
| 20260504182921 | 65 | 211 | 3.0 | 8.0 | 0.00 | 0.00 | 0.00 | 41 | 1004.4 |
| 20260504182418 | 66 | 192 | 8.0 | 15.0 | 0.00 | 0.00 | 0.00 | 40 | 1004.4 |
| 20260504181914 | 67 | 191 | 3.0 | 15.0 | 0.00 | 0.00 | 0.00 | 41 | 1004.2 |
| 20260504181412 | 66 | 277 | 4.0 | 9.0 | 0.00 | 0.00 | 0.00 | 41 | 1004.3 |
| 20260504180911 | 66 | 200 | 7.0 | 14.0 | 0.00 | 0.00 | 0.00 | 39 | 1004.4 |
| 20260504180409 | 66 | 272 | 9.0 | 17.0 | 0.00 | 0.00 | 0.00 | 40 | 1004.4 |
| 20260504175907 | 66 | 229 | 7.0 | 17.0 | 0.00 | 0.00 | 0.00 | 38 | 1004.3 |
| 20260504175403 | 68 | 229 | 4.0 | 24.0 | 0.00 | 0.00 | 0.00 | 38 | 1004.2 |
| 20260504174901 | 68 | 254 | 5.0 | 15.0 | 0.00 | 0.00 | 0.00 | 38 | 1004.1 |
| 20260504174358 | 68 | 225 | 4.0 | 13.0 | 0.00 | 0.00 | 0.00 | 38 | 1004.2 |
| 20260504173855 | 67 | 103 | 7.0 | 11.0 | 0.00 | 0.00 | 0.00 | 38 | 1004.3 |
| 20260504173352 | 66 | 182 | 12.0 | 18.0 | 0.00 | 0.00 | 0.00 | 39 | 1004.5 |
| 20260504172849 | 66 | 140 | 6.0 | 10.0 | 0.00 | 0.00 | 0.00 | 41 | 1004.5 |
| 20260504172346 | 65 | 155 | 5.0 | 10.0 | 0.00 | 0.00 | 0.00 | 40 | 1004.4 |
| 20260504171841 | 65 | 231 | 4.0 | 11.0 | 0.00 | 0.00 | 0.00 | 41 | 1004.7 |
| 20260504171339 | 65 | 307 | 5.0 | 9.0 | 0.00 | 0.00 | 0.00 | 40 | 1004.6 |
| 20260504170836 | 65 | 259 | 5.0 | 13.0 | 0.00 | 0.00 | 0.00 | 40 | 1004.5 |
| 20260504170332 | 66 | 144 | 7.0 | 13.0 | 0.00 | 0.00 | 0.00 | 39 | 1004.5 |
| 20260504160251 | 65 | 178 | 10.0 | 14.0 | 0.00 | 0.00 | 0.00 | 41 | 1005.2 |
| 20260504150716 | 62 | 164 | 3.0 | 7.0 | 0.00 | 0.00 | 0.00 | 47 | 1005.4 |
| 20260504150213 | 61 | 254 | 3.0 | 7.0 | 0.00 | 0.00 | 0.00 | 47 | 1005.4 |
| 20260504141143 | 59 | 240 | 4.0 | 10.0 | 0.00 | 0.00 | 0.00 | 50 | 1006.3 |
| 20260504140639 | 59 | 165 | 3.0 | 10.0 | 0.00 | 0.00 | 0.00 | 52 | 1006.0 |
| 20260504140135 | 58 | 176 | 9.0 | 13.0 | 0.00 | 0.00 | 0.00 | 53 | 1006.3 |
| 20260504130603 | 52 | 201 | 4.0 | 5.0 | 0.00 | 0.00 | 0.00 | 63 | 1007.0 |
| 20260504110451 | 44 | 170 | 4.0 | 7.0 | 0.00 | 0.00 | 0.00 | 73 | 1007.6 |
| 20260504100407 | 42 | 171 | 2.0 | 5.0 | 0.00 | 0.00 | 0.00 | 72 | 1007.7 |
| 20260504081800 | 41 | 264 | 2.0 | 3.0 | 0.00 | 0.00 | 0.00 | 67 | 1007.3 |
| 20260504081257 | 41 | 266 | 2.0 | 3.0 | 0.00 | 0.00 | 0.00 | 67 | 1007.5 |
| 20260504080753 | 41 | 249 | 3.0 | 3.0 | 0.00 | 0.00 | 0.00 | 68 | 1007.4 |
| 20260504080250 | 41 | 248 | 3.0 | 3.0 | 0.00 | 0.00 | 0.00 | 67 | 1007.4 |
| 20260504070217 | 39 | 269 | 2.0 | 2.0 | 0.00 | 0.00 | 0.00 | 68 | 1007.3 |
| 20260504060138 | 40 | 243 | 2.0 | 3.0 | 0.00 | 0.00 | 0.00 | 65 | 1007.7 |
| 20260504050606 | 41 | 264 | 2.0 | 3.0 | 0.00 | 0.00 | 0.00 | 64 | 1007.4 |
| 20260504050103 | 40 | 271 | 2.0 | 2.0 | 0.00 | 0.00 | 0.00 | 66 | 1007.7 |
| 20260504045600 | 40 | 263 | 0.0 | 2.0 | 0.00 | 0.00 | 0.00 | 67 | 1007.5 |
| 20260504045055 | 40 | 255 | 1.0 | 2.0 | 0.00 | 0.00 | 0.00 | 67 | 1007.5 |
| 20260504044553 | 40 | 278 | 2.0 | 2.0 | 0.00 | 0.00 | 0.00 | 66 | 1007.6 |
| 20260504044049 | 41 | 252 | 1.0 | 2.0 | 0.00 | 0.00 | 0.00 | 65 | 1007.5 |
| 20260504043547 | 41 | 250 | 1.0 | 2.0 | 0.00 | 0.00 | 0.00 | 64 | 1007.6 |
| 20260504043044 | 41 | 250 | 2.0 | 2.0 | 0.00 | 0.00 | 0.00 | 64 | 1007.5 |
| 20260504042541 | 41 | 247 | 0.0 | 0.0 | 0.00 | 0.00 | 0.00 | 64 | 1007.4 |
| 20260504042038 | 41 | 250 | 2.0 | 2.0 | 0.00 | 0.00 | 0.00 | 64 | 1007.3 |
| 20260504041533 | 42 | 249 | 0.0 | 2.0 | 0.00 | 0.00 | 0.00 | 63 | 1007.4 |
| 20260504041030 | 41 | 247 | 2.0 | 2.0 | 0.00 | 0.00 | 0.00 | 63 | 1007.2 |
| 20260504040527 | 42 | 256 | 2.0 | 3.0 | 0.00 | 0.00 | 0.00 | 63 | 1007.3 |
| 20260504040024 | 42 | 247 | 2.0 | 2.0 | 0.00 | 0.01 | 0.01 | 63 | 1007.0 |
| 20260504035521 | 42 | 261 | 2.0 | 2.0 | 0.00 | 0.01 | 0.01 | 63 | 1007.2 |
| 20260504035017 | 41 | 252 | 2.0 | 3.0 | 0.00 | 0.01 | 0.01 | 64 | 1007.2 |
| 20260504034515 | 41 | 247 | 2.0 | 2.0 | 0.00 | 0.01 | 0.01 | 64 | 1007.2 |
| 20260504034012 | 41 | 247 | 1.0 | 1.0 | 0.00 | 0.01 | 0.01 | 64 | 1007.1 |
| 20260504033510 | 41 | 247 | 0.0 | 1.0 | 0.00 | 0.01 | 0.01 | 64 | 1006.9 |
| 20260504033007 | 41 | 248 | 0.0 | 1.0 | 0.00 | 0.01 | 0.01 | 64 | 1007.0 |
| 20260504032504 | 41 | 251 | 1.0 | 2.0 | 0.00 | 0.01 | 0.01 | 64 | 1007.1 |
| 20260504032000 | 41 | 244 | 0.0 | 1.0 | 0.00 | 0.01 | 0.01 | 64 | 1006.9 |
| 20260504031457 | 41 | 263 | 0.0 | 1.0 | 0.00 | 0.01 | 0.01 | 65 | 1007.0 |
| 20260504030954 | 41 | 252 | 1.0 | 2.0 | 0.00 | 0.01 | 0.01 | 65 | 1006.9 |
| 20260504030451 | 39 | 248 | 0.0 | 0.0 | 0.00 | 0.01 | 0.01 | 68 | 1006.8 |
| 20260504025946 | 39 | 243 | 0.0 | 0.0 | 0.00 | 0.01 | 0.01 | 69 | 1006.9 |
| 20260504025444 | 41 | 249 | 0.0 | 1.0 | 0.00 | 0.01 | 0.01 | 67 | 1006.8 |
| 20260504024941 | 41 | 247 | 2.0 | 2.0 | 0.00 | 0.01 | 0.01 | 65 | 1006.8 |
| 20260504024438 | 42 | 267 | 3.0 | 3.0 | 0.00 | 0.01 | 0.01 | 61 | 1006.7 |
| 20260504023935 | 41 | 320 | 5.0 | 6.0 | 0.00 | 0.01 | 0.01 | 64 | 1006.7 |
| 20260504023431 | 41 | 241 | 3.0 | 3.0 | 0.00 | 0.01 | 0.01 | 67 | 1006.7 |
| 20260504022927 | 42 | 262 | 2.0 | 3.0 | 0.00 | 0.01 | 0.01 | 64 | 1006.8 |
| 20260504022423 | 42 | 278 | 3.0 | 5.0 | 0.00 | 0.01 | 0.01 | 61 | 1006.6 |
| 20260504021920 | 43 | 257 | 2.0 | 3.0 | 0.00 | 0.01 | 0.01 | 61 | 1006.8 |
| 20260504021417 | 43 | 257 | 1.0 | 2.0 | 0.00 | 0.01 | 0.01 | 61 | 1006.8 |
| 20260504020915 | 42 | 264 | 0.0 | 1.0 | 0.00 | 0.01 | 0.01 | 63 | 1006.6 |
| 20260504020411 | 42 | 252 | 1.0 | 2.0 | 0.00 | 0.01 | 0.01 | 63 | 1006.8 |
| 20260504015908 | 42 | 240 | 1.0 | 2.0 | 0.00 | 0.01 | 0.01 | 63 | 1006.8 |
| 20260504015404 | 42 | 255 | 1.0 | 2.0 | 0.00 | 0.01 | 0.01 | 62 | 1006.7 |
| 20260504014900 | 42 | 301 | 2.0 | 3.0 | 0.00 | 0.01 | 0.01 | 62 | 1006.9 |
| 20260504014356 | 42 | 261 | 1.0 | 2.0 | 0.00 | 0.01 | 0.01 | 62 | 1006.9 |
| 20260504013853 | 43 | 244 | 0.0 | 0.0 | 0.00 | 0.01 | 0.01 | 61 | 1006.9 |
| 20260504013351 | 43 | 259 | 0.0 | 0.0 | 0.00 | 0.01 | 0.01 | 62 | 1006.9 |
| 20260504012848 | 43 | 248 | 0.0 | 0.0 | 0.00 | 0.01 | 0.01 | 62 | 1006.8 |
| 20260504012345 | 43 | 256 | 0.0 | 1.0 | 0.00 | 0.01 | 0.01 | 62 | 1006.9 |
| 20260504011843 | 43 | 239 | 0.0 | 1.0 | 0.00 | 0.01 | 0.01 | 63 | 1006.6 |
| 20260504011339 | 42 | 245 | 0.0 | 0.0 | 0.00 | 0.01 | 0.01 | 64 | 1006.6 |
| 20260504010835 | 42 | 246 | 0.0 | 0.0 | 0.00 | 0.01 | 0.01 | 64 | 1006.6 |
| 20260504010331 | 43 | 252 | 0.0 | 0.0 | 0.00 | 0.01 | 0.01 | 64 | 1006.5 |
| 20260504005828 | 43 | 263 | 0.0 | 0.0 | 0.00 | 0.01 | 0.01 | 63 | 1006.6 |
| 20260504005325 | 43 | 261 | 0.0 | 0.0 | 0.00 | 0.01 | 0.01 | 63 | 1006.5 |
| 20260504004822 | 43 | 250 | 0.0 | 0.0 | 0.00 | 0.01 | 0.01 | 63 | 1006.5 |
| 20260504004320 | 43 | 260 | 1.0 | 2.0 | 0.00 | 0.01 | 0.01 | 62 | 1006.3 |
| 20260504003816 | 44 | 272 | 2.0 | 3.0 | 0.00 | 0.01 | 0.01 | 62 | 1006.2 |
| 20260504003313 | 44 | 272 | 3.0 | 3.0 | 0.00 | 0.01 | 0.01 | 61 | 1006.0 |
| 20260504002809 | 44 | 284 | 2.0 | 5.0 | 0.00 | 0.01 | 0.01 | 61 | 1006.1 |
| 20260504002306 | 44 | 267 | 3.0 | 5.0 | 0.00 | 0.01 | 0.01 | 61 | 1005.9 |
| 20260504001804 | 44 | 247 | 4.0 | 5.0 | 0.00 | 0.01 | 0.01 | 60 | 1006.0 |
| 20260504001301 | 45 | 326 | 4.0 | 6.0 | 0.00 | 0.01 | 0.01 | 59 | 1005.8 |
| 20260504000758 | 45 | 278 | 2.0 | 5.0 | 0.00 | 0.01 | 0.01 | 59 | 1005.8 |
| 20260504000255 | 46 | 335 | 4.0 | 9.0 | 0.00 | 0.01 | 0.01 | 58 | 1005.6 |
| 20260503235753 | 46 | 316 | 6.0 | 9.0 | 0.00 | 0.01 | 0.01 | 56 | 1005.6 |
| 20260503235250 | 45 | 300 | 7.0 | 8.0 | 0.00 | 0.01 | 0.01 | 58 | 1005.6 |
| 20260503234748 | 45 | 264 | 3.0 | 6.0 | 0.00 | 0.01 | 0.01 | 59 | 1005.5 |
| 20260503234245 | 46 | 346 | 4.0 | 5.0 | 0.00 | 0.01 | 0.01 | 58 | 1005.5 |
| 20260503233742 | 46 | 272 | 3.0 | 5.0 | 0.00 | 0.01 | 0.01 | 58 | 1005.3 |
| 20260503233238 | 46 | 322 | 5.0 | 7.0 | 0.00 | 0.01 | 0.01 | 57 | 1005.4 |
| 20260503232735 | 47 | 267 | 5.0 | 8.0 | 0.00 | 0.01 | 0.01 | 56 | 1005.0 |
| 20260503232232 | 47 | 344 | 8.0 | 11.0 | 0.00 | 0.01 | 0.01 | 55 | 1005.4 |
| 20260503231730 | 47 | 276 | 3.0 | 6.0 | 0.00 | 0.01 | 0.01 | 55 | 1005.0 |
| 20260503231227 | 47 | 235 | 4.0 | 8.0 | 0.00 | 0.01 | 0.01 | 55 | 1005.5 |
| 20260503230723 | 48 | 284 | 6.0 | 9.0 | 0.00 | 0.01 | 0.01 | 54 | 1005.2 |
| 20260503230221 | 48 | 311 | 9.0 | 11.0 | 0.00 | 0.01 | 0.01 | 53 | 1005.2 |